Time,TemperatureF,DewpointF,PressureIn,WindDirection,WindDirectionDegrees,WindSpeedMPH,WindSpeedGustMPH,Humidity,HourlyPrecipIn,Conditions,Clouds,dailyrainin,SoftwareType,DateUTC
2013-01-24 00:00:00,60.7,0.0,29.81,SSE,158,6.0,16.0,0,0.00,,,0.00,VWS V13.01,2013-01-24 05:00:00,
2013-01-24 01:33:00,41.6,0.0,30.13,South,173,2.0,14.0,0,0.00,,,0.00,VWS V13.01,2013-01-24 06:33:00,
2013-01-24 01:38:00,41.9,0.0,30.13,SSW,192,1.0,14.0,0,0.00,,,0.00,VWS V13.01,2013-01-24 06:38:00,
2013-01-24 01:43:00,42.1,0.0,30.13,SSW,199,4.0,14.0,0,0.00,,,0.00,VWS V13.01,2013-01-24 06:43:00,
2013-01-24 01:48:00,42.2,0.0,30.13,South,184,2.0,14.0,0,0.00,,,0.00,VWS V13.01,2013-01-24 06:48:00,
2013-01-24 01:53:00,42.3,0.0,30.13,South,175,6.0,14.0,0,0.00,,,0.00,VWS V13.01,2013-01-24 06:53:00,
2013-01-24 01:58:00,42.3,0.0,30.13,South,178,2.0,14.0,0,0.00,,,0.00,VWS V13.01,2013-01-24 06:58:00,
2013-01-24 02:03:00,42.5,0.0,30.14,South,184,4.0,7.0,0,0.00,,,0.00,VWS V13.01,2013-01-24 07:03:00,
2013-01-24 02:08:00,42.6,0.0,30.14,South,180,8.0,12.0,0,0.00,,,0.00,VWS V13.01,2013-01-24 07:08:00,
2013-01-24 02:13:00,42.6,0.0,30.14,South,187,0.0,12.0,0,0.00,,,0.00,VWS V13.01,2013-01-24 07:13:00,
2013-01-24 02:18:00,42.6,0.0,30.13,South,180,6.0,12.0,0,0.00,,,0.00,VWS V13.01,2013-01-24 07:18:00,
2013-01-24 02:24:00,42.8,0.0,30.13,SSW,207,0.0,12.0,0,0.00,,,0.00,VWS V13.01,2013-01-24 07:24:00,
2013-01-24 02:29:00,42.6,0.0,30.13,SSW,192,2.0,13.0,0,0.00,,,0.00,VWS V13.01,2013-01-24 07:29:00,
2013-01-24 02:34:00,42.6,0.0,30.13,SSW,193,0.0,9.0,0,0.00,,,0.00,VWS V13.01,2013-01-24 07:34:00,
2013-01-24 02:39:00,42.5,0.0,30.13,SSW,213,0.0,9.0,0,0.00,,,0.00,VWS V13.01,2013-01-24 07:39:00,
2013-01-24 02:44:00,42.3,0.0,30.13,South,187,0.0,9.0,0,0.00,,,0.00,VWS V13.01,2013-01-24 07:44:00,
2013-01-24 02:49:00,42.1,0.0,30.14,SSW,213,0.0,9.0,0,0.00,,,0.00,VWS V13.01,2013-01-24 07:49:00,
2013-01-24 02:54:00,41.8,0.0,30.14,SSW,207,0.0,9.0,0,0.00,,,0.00,VWS V13.01,2013-01-24 07:54:00,
2013-01-24 02:59:00,41.5,0.0,30.14,SSW,200,0.0,9.0,0,0.00,,,0.00,VWS V13.01,2013-01-24 07:59:00,
2013-01-24 03:04:00,41.2,0.0,30.15,SSW,200,0.0,0.0,0,0.00,,,0.00,VWS V13.01,2013-01-24 08:04:00,
2013-01-24 03:09:00,41.2,0.0,30.15,South,185,5.0,6.0,0,0.00,,,0.00,VWS V13.01,2013-01-24 08:09:00,
2013-01-24 03:14:00,41.3,0.0,30.15,South,179,9.0,9.0,0,0.00,,,0.00,VWS V13.01,2013-01-24 08:14:00,
2013-01-24 03:19:00,41.6,0.0,30.16,WSW,240,4.0,9.0,0,0.00,,,0.00,VWS V13.01,2013-01-24 08:19:00,
2013-01-24 03:24:00,41.6,0.0,30.16,SSW,196,0.0,9.0,0,0.00,,,0.00,VWS V13.01,2013-01-24 08:24:00,
2013-01-24 03:29:00,41.8,0.0,30.16,SW,229,0.0,9.0,0,0.00,,,0.00,VWS V13.01,2013-01-24 08:29:00,
2013-01-24 03:34:00,41.8,0.0,30.16,SW,220,0.0,4.0,0,0.00,,,0.00,VWS V13.01,2013-01-24 08:34:00,
2013-01-24 03:39:00,41.8,0.0,30.16,South,186,0.0,8.0,0,0.00,,,0.00,VWS V13.01,2013-01-24 08:39:00,
2013-01-24 03:44:00,41.8,0.0,30.16,SSW,192,0.0,8.0,0,0.00,,,0.00,VWS V13.01,2013-01-24 08:44:00,
2013-01-24 03:49:00,41.8,0.0,30.17,SSW,195,5.0,8.0,0,0.00,,,0.00,VWS V13.01,2013-01-24 08:49:00,
2013-01-24 03:54:00,41.6,0.0,30.17,West,261,0.0,10.0,0,0.00,,,0.00,VWS V13.01,2013-01-24 08:54:00,
2013-01-24 03:59:00,41.5,0.0,30.17,South,184,2.0,11.0,0,0.00,,,0.00,VWS V13.01,2013-01-24 08:59:00,
2013-01-24 04:04:00,41.5,0.0,30.17,SE,136,6.0,7.0,0,0.00,,,0.00,VWS V13.01,2013-01-24 09:04:00,
2013-01-24 04:09:00,41.2,0.0,30.17,South,183,0.0,9.0,0,0.00,,,0.00,VWS V13.01,2013-01-24 09:09:00,
2013-01-24 04:14:00,40.9,0.0,30.17,SW,228,1.0,10.0,0,0.00,,,0.00,VWS V13.01,2013-01-24 09:14:00,
2013-01-24 04:19:00,40.6,0.0,30.17,WSW,252,1.0,10.0,0,0.00,,,0.00,VWS V13.01,2013-01-24 09:19:00,
2013-01-24 04:24:00,40.2,0.0,30.17,West,262,4.0,10.0,0,0.00,,,0.00,VWS V13.01,2013-01-24 09:24:00,
2013-01-24 04:29:00,40.1,0.0,30.17,West,261,0.0,10.0,0,0.00,,,0.00,VWS V13.01,2013-01-24 09:29:00,
2013-01-24 04:32:00,39.8,0.0,30.18,West,265,0.0,2.0,0,0.00,,,0.00,VWS V13.01,2013-01-24 09:32:00,
2013-01-24 06:52:00,34.6,0.0,30.23,WNW,298,0.0,2.0,0,0.00,,,0.00,VWS V13.01,2013-01-24 11:52:00,
2013-01-24 06:57:00,34.4,0.0,30.23,WNW,298,0.0,2.0,0,0.00,,,0.00,VWS V13.01,2013-01-24 11:57:00,
2013-01-24 07:02:00,34.3,0.0,30.25,WSW,242,4.0,4.0,0,0.00,,,0.00,VWS V13.01,2013-01-24 12:02:00,
2013-01-24 07:07:00,34.1,0.0,30.25,WNW,298,5.0,7.0,0,0.00,,,0.00,VWS V13.01,2013-01-24 12:07:00,
2013-01-24 07:12:00,34.1,0.0,30.25,West,277,4.0,7.0,0,0.00,,,0.00,VWS V13.01,2013-01-24 12:12:00,
2013-01-24 07:17:00,34.1,0.0,30.26,WNW,298,7.0,8.0,0,0.00,,,0.00,VWS V13.01,2013-01-24 12:17:00,
2013-01-24 07:22:00,34.0,0.0,30.26,NW,314,0.0,8.0,0,0.00,,,0.00,VWS V13.01,2013-01-24 12:22:00,
2013-01-24 07:27:00,33.7,0.0,30.26,WNW,302,3.0,8.0,0,0.00,,,0.00,VWS V13.01,2013-01-24 12:27:00,
2013-01-24 07:32:00,33.5,0.0,30.27,NW,320,1.0,6.0,0,0.00,,,0.00,VWS V13.01,2013-01-24 12:32:00,
2013-01-24 07:37:00,33.4,0.0,30.27,WNW,292,0.0,7.0,0,0.00,,,0.00,VWS V13.01,2013-01-24 12:37:00,
2013-01-24 07:42:00,33.2,0.0,30.27,NW,321,0.0,7.0,0,0.00,,,0.00,VWS V13.01,2013-01-24 12:42:00,
2013-01-24 07:47:00,32.9,0.0,30.28,NW,321,2.0,7.0,0,0.00,,,0.00,VWS V13.01,2013-01-24 12:47:00,
2013-01-24 07:52:00,32.8,0.0,30.28,NW,321,1.0,7.0,0,0.00,,,0.00,VWS V13.01,2013-01-24 12:52:00,
2013-01-24 07:57:00,32.7,0.0,30.28,NW,325,0.0,7.0,0,0.00,,,0.00,VWS V13.01,2013-01-24 12:57:00,
2013-01-24 08:02:00,32.5,0.0,30.30,NW,322,0.0,0.0,0,0.00,,,0.00,VWS V13.01,2013-01-24 13:02:00,
2013-01-24 08:07:00,32.4,0.0,30.30,NW,325,0.0,2.0,0,0.00,,,0.00,VWS V13.01,2013-01-24 13:07:00,
2013-01-24 08:12:00,32.4,0.0,30.30,NNW,329,2.0,7.0,0,0.00,,,0.00,VWS V13.01,2013-01-24 13:12:00,
2013-01-24 08:17:00,32.2,0.0,30.31,NW,317,6.0,9.0,0,0.00,,,0.00,VWS V13.01,2013-01-24 13:17:00,
2013-01-24 08:22:00,32.1,0.0,30.31,WNW,300,4.0,9.0,0,0.00,,,0.00,VWS V13.01,2013-01-24 13:22:00,
2013-01-24 08:27:00,32.1,0.0,30.31,NW,307,3.0,9.0,0,0.00,,,0.00,VWS V13.01,2013-01-24 13:27:00,
2013-01-24 08:32:00,31.9,0.0,30.32,NW,305,7.0,8.0,0,0.00,,,0.00,VWS V13.01,2013-01-24 13:32:00,
2013-01-24 08:37:00,32.1,0.0,30.32,WNW,295,7.0,11.0,0,0.00,,,0.00,VWS V13.01,2013-01-24 13:37:00,
2013-01-24 08:42:00,32.1,0.0,30.32,NW,305,8.0,11.0,0,0.00,,,0.00,VWS V13.01,2013-01-24 13:42:00,
2013-01-24 08:47:00,32.1,0.0,30.34,NW,311,8.0,12.0,0,0.00,,,0.00,VWS V13.01,2013-01-24 13:47:00,
2013-01-24 08:52:00,32.2,0.0,30.34,WNW,302,5.0,12.0,0,0.00,,,0.00,VWS V13.01,2013-01-24 13:52:00,
2013-01-24 08:57:00,32.2,0.0,30.34,WNW,297,5.0,12.0,0,0.00,,,0.00,VWS V13.01,2013-01-24 13:57:00,
2013-01-24 09:02:00,32.4,0.0,30.34,WNW,294,5.0,12.0,0,0.00,,,0.00,VWS V13.01,2013-01-24 14:02:00,
2013-01-24 09:07:00,32.4,0.0,30.34,WNW,295,7.0,13.0,0,0.00,,,0.00,VWS V13.01,2013-01-24 14:07:00,
2013-01-24 09:12:00,32.2,0.0,30.34,WNW,302,5.0,13.0,0,0.00,,,0.00,VWS V13.01,2013-01-24 14:12:00,
2013-01-24 09:17:00,32.4,0.0,30.35,NW,306,6.0,13.0,0,0.00,,,0.00,VWS V13.01,2013-01-24 14:17:00,
2013-01-24 09:22:00,32.4,0.0,30.35,NW,323,6.0,13.0,0,0.00,,,0.00,VWS V13.01,2013-01-24 14:22:00,
2013-01-24 09:27:00,32.2,0.0,30.35,WNW,296,7.0,15.0,0,0.00,,,0.00,VWS V13.01,2013-01-24 14:27:00,
2013-01-24 09:32:00,31.8,0.0,30.36,NNW,336,4.0,9.0,0,0.00,,,0.00,VWS V13.01,2013-01-24 14:32:00,
2013-01-24 09:37:00,31.6,0.0,30.36,WNW,302,7.0,11.0,0,0.00,,,0.00,VWS V13.01,2013-01-24 14:37:00,
2013-01-24 09:42:00,31.3,0.0,30.36,NNW,329,5.0,11.0,0,0.00,,,0.00,VWS V13.01,2013-01-24 14:42:00,
2013-01-24 09:47:00,30.9,0.0,30.38,NNW,331,9.0,12.0,0,0.00,,,0.00,VWS V13.01,2013-01-24 14:47:00,
2013-01-24 09:52:00,30.7,0.0,30.38,NNW,333,5.0,13.0,0,0.00,,,0.00,VWS V13.01,2013-01-24 14:52:00,
2013-01-24 09:57:00,30.6,0.0,30.38,NW,319,0.0,13.0,0,0.00,,,0.00,VWS V13.01,2013-01-24 14:57:00,
2013-01-24 10:02:00,30.7,0.0,30.38,NW,321,7.0,7.0,0,0.00,,,0.00,VWS V13.01,2013-01-24 15:02:00,
2013-01-24 10:07:00,30.6,0.0,30.38,NW,308,7.0,13.0,0,0.00,,,0.00,VWS V13.01,2013-01-24 15:07:00,
2013-01-24 10:12:00,30.4,0.0,30.38,WNW,298,5.0,13.0,0,0.00,,,0.00,VWS V13.01,2013-01-24 15:12:00,
2013-01-24 10:17:00,30.3,0.0,30.39,NW,311,12.0,13.0,0,0.00,,,0.00,VWS V13.01,2013-01-24 15:17:00,
2013-01-24 10:22:00,30.3,0.0,30.39,WNW,296,10.0,14.0,0,0.00,,,0.00,VWS V13.01,2013-01-24 15:22:00,
2013-01-24 10:27:00,30.1,0.0,30.39,NW,318,7.0,14.0,0,0.00,,,0.00,VWS V13.01,2013-01-24 15:27:00,
2013-01-24 10:32:00,30.7,0.0,30.40,WNW,303,8.0,11.0,0,0.00,,,0.00,VWS V13.01,2013-01-24 15:32:00,
2013-01-24 10:37:00,30.7,0.0,30.40,WNW,296,10.0,12.0,0,0.00,,,0.00,VWS V13.01,2013-01-24 15:37:00,
2013-01-24 10:42:00,30.4,0.0,30.40,NW,305,11.0,14.0,0,0.00,,,0.00,VWS V13.01,2013-01-24 15:42:00,
2013-01-24 10:47:00,30.6,0.0,30.40,WNW,286,5.0,14.0,0,0.00,,,0.00,VWS V13.01,2013-01-24 15:47:00,
2013-01-24 10:52:00,30.7,0.0,30.40,West,265,5.0,14.0,0,0.00,,,0.00,VWS V13.01,2013-01-24 15:52:00,
2013-01-24 10:57:00,30.9,0.0,30.40,NW,315,6.0,14.0,0,0.00,,,0.00,VWS V13.01,2013-01-24 15:57:00,
2013-01-24 11:02:00,30.9,0.0,30.41,NNW,328,4.0,12.0,0,0.00,,,0.00,VWS V13.01,2013-01-24 16:02:00,
2013-01-24 11:07:00,30.7,0.0,30.41,NW,325,6.0,12.0,0,0.00,,,0.00,VWS V13.01,2013-01-24 16:07:00,
2013-01-24 11:12:00,31.0,0.0,30.41,NW,320,7.0,12.0,0,0.00,,,0.00,VWS V13.01,2013-01-24 16:12:00,
2013-01-24 11:17:00,30.7,0.0,30.42,NW,309,4.0,12.0,0,0.00,,,0.00,VWS V13.01,2013-01-24 16:17:00,
2013-01-24 11:19:00,30.9,0.0,30.42,NW,305,8.0,12.0,0,0.00,,,0.00,VWS V13.01,2013-01-24 16:19:00,
2013-01-24 13:01:00,30.9,0.0,30.40,WNW,289,7.0,12.0,0,0.00,,,0.00,VWS V13.01,2013-01-24 18:01:00,
2013-01-24 13:06:00,32.8,0.0,30.40,WNW,300,0.0,10.0,0,0.00,,,0.00,VWS V13.01,2013-01-24 18:06:00,
2013-01-24 13:11:00,32.8,0.0,30.40,NW,326,5.0,11.0,0,0.00,,,0.00,VWS V13.01,2013-01-24 18:11:00,
2013-01-24 13:16:00,32.7,0.0,30.40,NNW,332,4.0,11.0,0,0.00,,,0.00,VWS V13.01,2013-01-24 18:16:00,
2013-01-24 13:21:00,33.1,0.0,30.40,North,10,0.0,11.0,0,0.00,,,0.00,VWS V13.01,2013-01-24 18:21:00,
2013-01-24 13:26:00,33.4,0.0,30.40,NW,306,4.0,11.0,0,0.00,,,0.00,VWS V13.01,2013-01-24 18:26:00,
2013-01-24 13:31:00,32.8,0.0,30.39,WNW,294,7.0,8.0,0,0.00,,,0.00,VWS V13.01,2013-01-24 18:31:00,
2013-01-24 13:36:00,32.4,0.0,30.39,NW,311,5.0,13.0,0,0.00,,,0.00,VWS V13.01,2013-01-24 18:36:00,
2013-01-24 13:41:00,32.7,0.0,30.39,WNW,303,1.0,13.0,0,0.00,,,0.00,VWS V13.01,2013-01-24 18:41:00,
2013-01-24 13:46:00,33.2,0.0,30.39,NW,325,3.0,13.0,0,0.00,,,0.00,VWS V13.01,2013-01-24 18:46:00,
2013-01-24 13:51:00,33.5,0.0,30.39,NNW,333,1.0,13.0,0,0.00,,,0.00,VWS V13.01,2013-01-24 18:51:00,
2013-01-24 13:56:00,34.0,0.0,30.39,North,351,1.0,13.0,0,0.00,,,0.00,VWS V13.01,2013-01-24 18:56:00,
2013-01-24 14:01:00,34.1,0.0,30.38,NNW,336,7.0,11.0,0,0.00,,,0.00,VWS V13.01,2013-01-24 19:01:00,
2013-01-24 14:06:00,33.7,0.0,30.38,NW,321,5.0,11.0,0,0.00,,,0.00,VWS V13.01,2013-01-24 19:06:00,
2013-01-24 14:11:00,34.0,0.0,30.38,NNW,329,4.0,11.0,0,0.00,,,0.00,VWS V13.01,2013-01-24 19:11:00,
2013-01-24 14:16:00,34.6,0.0,30.38,North,355,1.0,11.0,0,0.00,,,0.00,VWS V13.01,2013-01-24 19:16:00,
2013-01-24 14:21:00,34.9,0.0,30.38,WNW,302,3.0,11.0,0,0.00,,,0.00,VWS V13.01,2013-01-24 19:21:00,
2013-01-24 14:26:00,34.9,0.0,30.38,NW,317,0.0,11.0,0,0.00,,,0.00,VWS V13.01,2013-01-24 19:26:00,
2013-01-24 14:31:00,35.0,0.0,30.38,WNW,293,6.0,10.0,0,0.00,,,0.00,VWS V13.01,2013-01-24 19:31:00,
2013-01-24 14:36:00,34.6,0.0,30.38,NNW,337,5.0,10.0,0,0.00,,,0.00,VWS V13.01,2013-01-24 19:36:00,
2013-01-24 14:41:00,34.6,0.0,30.38,WNW,292,0.0,10.0,0,0.00,,,0.00,VWS V13.01,2013-01-24 19:41:00,
2013-01-24 14:46:00,34.7,0.0,30.38,NNW,333,0.0,10.0,0,0.00,,,0.00,VWS V13.01,2013-01-24 19:46:00,
2013-01-24 14:51:00,34.6,0.0,30.38,NNW,329,0.0,10.0,0,0.00,,,0.00,VWS V13.01,2013-01-24 19:51:00,
2013-01-24 14:56:00,34.6,0.0,30.38,NNW,329,0.0,10.0,0,0.00,,,0.00,VWS V13.01,2013-01-24 19:56:00,
2013-01-24 15:01:00,34.6,0.0,30.39,NNW,331,5.0,6.0,0,0.00,,,0.00,VWS V13.01,2013-01-24 20:01:00,
2013-01-24 15:06:00,34.1,0.0,30.39,NW,306,8.0,12.0,0,0.00,,,0.00,VWS V13.01,2013-01-24 20:06:00,
2013-01-24 15:11:00,34.0,0.0,30.39,West,281,8.0,12.0,0,0.00,,,0.00,VWS V13.01,2013-01-24 20:11:00,
2013-01-24 15:16:00,34.1,0.0,30.39,WNW,292,7.0,12.0,0,0.00,,,0.00,VWS V13.01,2013-01-24 20:16:00,
2013-01-24 15:21:00,34.1,0.0,30.39,NNW,335,5.0,12.0,0,0.00,,,0.00,VWS V13.01,2013-01-24 20:21:00,
2013-01-24 15:26:00,34.1,0.0,30.39,NW,323,0.0,12.0,0,0.00,,,0.00,VWS V13.01,2013-01-24 20:26:00,
2013-01-24 15:31:00,34.4,0.0,30.39,NNE,31,2.0,5.0,0,0.00,,,0.00,VWS V13.01,2013-01-24 20:31:00,
2013-01-24 15:36:00,34.6,0.0,30.39,NW,312,0.0,7.0,0,0.00,,,0.00,VWS V13.01,2013-01-24 20:36:00,
2013-01-24 15:41:00,34.6,0.0,30.39,WNW,297,1.0,7.0,0,0.00,,,0.00,VWS V13.01,2013-01-24 20:41:00,
2013-01-24 15:46:00,34.4,0.0,30.39,NNW,336,4.0,7.0,0,0.00,,,0.00,VWS V13.01,2013-01-24 20:46:00,
2013-01-24 15:51:00,34.1,0.0,30.39,NNW,327,4.0,8.0,0,0.00,,,0.00,VWS V13.01,2013-01-24 20:51:00,
2013-01-24 15:56:00,34.0,0.0,30.39,WNW,300,5.0,10.0,0,0.00,,,0.00,VWS V13.01,2013-01-24 20:56:00,
2013-01-24 16:01:00,33.8,0.0,30.40,NNW,331,0.0,5.0,0,0.00,,,0.00,VWS V13.01,2013-01-24 21:01:00,
2013-01-24 16:06:00,34.0,0.0,30.40,WNW,287,1.0,7.0,0,0.00,,,0.00,VWS V13.01,2013-01-24 21:06:00,
2013-01-24 16:11:00,34.4,0.0,30.40,NW,304,11.0,11.0,0,0.00,,,0.00,VWS V13.01,2013-01-24 21:11:00,
2013-01-24 16:16:00,34.3,0.0,30.40,WNW,301,3.0,11.0,0,0.00,,,0.00,VWS V13.01,2013-01-24 21:16:00,
2013-01-24 16:21:00,34.3,0.0,30.40,WNW,289,5.0,11.0,0,0.00,,,0.00,VWS V13.01,2013-01-24 21:21:00,
2013-01-24 16:26:00,34.3,0.0,30.40,NW,313,0.0,11.0,0,0.00,,,0.00,VWS V13.01,2013-01-24 21:26:00,
2013-01-24 16:31:00,34.4,0.0,30.40,NNW,328,0.0,0.0,0,0.00,,,0.00,VWS V13.01,2013-01-24 21:31:00,
2013-01-24 16:36:00,34.3,0.0,30.40,NW,325,4.0,9.0,0,0.00,,,0.00,VWS V13.01,2013-01-24 21:36:00,
2013-01-24 16:41:00,34.0,0.0,30.40,NW,319,5.0,9.0,0,0.00,,,0.00,VWS V13.01,2013-01-24 21:41:00,
2013-01-24 16:46:00,34.0,0.0,30.40,WNW,302,0.0,9.0,0,0.00,,,0.00,VWS V13.01,2013-01-24 21:46:00,
2013-01-24 16:51:00,34.0,0.0,30.40,WNW,300,3.0,9.0,0,0.00,,,0.00,VWS V13.01,2013-01-24 21:51:00,
2013-01-24 16:56:00,33.5,0.0,30.40,NW,311,5.0,11.0,0,0.00,,,0.00,VWS V13.01,2013-01-24 21:56:00,
2013-01-24 17:01:00,33.4,0.0,30.40,WNW,299,6.0,7.0,0,0.00,,,0.00,VWS V13.01,2013-01-24 22:01:00,
2013-01-24 17:06:00,33.4,0.0,30.40,NW,324,0.0,8.0,0,0.00,,,0.00,VWS V13.01,2013-01-24 22:06:00,
2013-01-24 17:11:00,33.5,0.0,30.40,NW,325,5.0,8.0,0,0.00,,,0.00,VWS V13.01,2013-01-24 22:11:00,
2013-01-24 17:16:00,33.4,0.0,30.40,WNW,300,0.0,8.0,0,0.00,,,0.00,VWS V13.01,2013-01-24 22:16:00,
2013-01-24 17:22:00,33.1,0.0,30.40,WNW,302,1.0,8.0,0,0.00,,,0.00,VWS V13.01,2013-01-24 22:22:00,
2013-01-24 17:27:00,32.9,0.0,30.40,WNW,296,0.0,8.0,0,0.00,,,0.00,VWS V13.01,2013-01-24 22:27:00,
2013-01-24 17:32:00,32.8,0.0,30.40,WNW,294,3.0,6.0,0,0.00,,,0.00,VWS V13.01,2013-01-24 22:32:00,
2013-01-24 17:37:00,32.5,0.0,30.40,NNW,336,0.0,7.0,0,0.00,,,0.00,VWS V13.01,2013-01-24 22:37:00,
2013-01-24 17:42:00,32.5,0.0,30.40,NW,307,2.0,7.0,0,0.00,,,0.00,VWS V13.01,2013-01-24 22:42:00,
2013-01-24 17:47:00,32.4,0.0,30.41,NNW,344,0.0,7.0,0,0.00,,,0.00,VWS V13.01,2013-01-24 22:47:00,
2013-01-24 17:52:00,32.2,0.0,30.41,NW,309,5.0,7.0,0,0.00,,,0.00,VWS V13.01,2013-01-24 22:52:00,
2013-01-24 17:57:00,31.9,0.0,30.41,NW,319,0.0,8.0,0,0.00,,,0.00,VWS V13.01,2013-01-24 22:57:00,
2013-01-24 18:02:00,31.9,0.0,30.41,WNW,292,1.0,4.0,0,0.00,,,0.00,VWS V13.01,2013-01-24 23:02:00,
2013-01-24 18:07:00,31.8,0.0,30.41,NW,317,0.0,6.0,0,0.00,,,0.00,VWS V13.01,2013-01-24 23:07:00,
2013-01-24 18:12:00,31.6,0.0,30.41,NW,321,0.0,6.0,0,0.00,,,0.00,VWS V13.01,2013-01-24 23:12:00,
2013-01-24 18:17:00,31.5,0.0,30.41,NW,313,0.0,6.0,0,0.00,,,0.00,VWS V13.01,2013-01-24 23:17:00,
2013-01-24 18:22:00,31.5,0.0,30.41,NW,319,0.0,6.0,0,0.00,,,0.00,VWS V13.01,2013-01-24 23:22:00,
2013-01-24 18:27:00,31.3,0.0,30.41,NW,322,0.0,6.0,0,0.00,,,0.00,VWS V13.01,2013-01-24 23:27:00,
2013-01-24 18:32:00,31.2,0.0,30.41,NNW,329,0.0,0.0,0,0.00,,,0.00,VWS V13.01,2013-01-24 23:32:00,
2013-01-24 18:37:00,31.0,0.0,30.41,NW,321,0.0,3.0,0,0.00,,,0.00,VWS V13.01,2013-01-24 23:37:00,
2013-01-24 18:42:00,30.9,0.0,30.41,NW,320,0.0,3.0,0,0.00,,,0.00,VWS V13.01,2013-01-24 23:42:00,
2013-01-24 18:47:00,30.7,0.0,30.42,NW,311,0.0,4.0,0,0.00,,,0.00,VWS V13.01,2013-01-24 23:47:00,
2013-01-24 18:52:00,30.4,0.0,30.42,NW,322,0.0,4.0,0,0.00,,,0.00,VWS V13.01,2013-01-24 23:52:00,
2013-01-24 18:57:00,30.4,0.0,30.42,NW,321,0.0,4.0,0,0.00,,,0.00,VWS V13.01,2013-01-24 23:57:00,
2013-01-24 19:02:00,30.4,0.0,30.42,NW,323,0.0,0.0,0,0.00,,,0.00,VWS V13.01,2013-01-25 00:02:00,
2013-01-24 19:07:00,30.3,0.0,30.42,NW,306,0.0,3.0,0,0.00,,,0.00,VWS V13.01,2013-01-25 00:07:00,
2013-01-24 19:12:00,30.1,0.0,30.42,NW,310,0.0,3.0,0,0.00,,,0.00,VWS V13.01,2013-01-25 00:12:00,
2013-01-24 19:17:00,30.0,0.0,30.42,NW,317,0.0,3.0,0,0.00,,,0.00,VWS V13.01,2013-01-25 00:17:00,
2013-01-24 19:22:00,29.8,0.0,30.42,NW,317,0.0,3.0,0,0.00,,,0.00,VWS V13.01,2013-01-25 00:22:00,
2013-01-24 19:27:00,30.0,0.0,30.42,NW,317,0.0,3.0,0,0.00,,,0.00,VWS V13.01,2013-01-25 00:27:00,
2013-01-24 19:32:00,29.8,0.0,30.42,NW,317,0.0,0.0,0,0.00,,,0.00,VWS V13.01,2013-01-25 00:32:00,
2013-01-24 19:37:00,29.8,0.0,30.42,NW,320,0.0,3.0,0,0.00,,,0.00,VWS V13.01,2013-01-25 00:37:00,
2013-01-24 19:42:00,29.8,0.0,30.42,NW,321,0.0,3.0,0,0.00,,,0.00,VWS V13.01,2013-01-25 00:42:00,
2013-01-24 19:47:00,29.8,0.0,30.41,NW,321,0.0,3.0,0,0.00,,,0.00,VWS V13.01,2013-01-25 00:47:00,
2013-01-24 19:52:00,29.7,0.0,30.41,NW,321,0.0,3.0,0,0.00,,,0.00,VWS V13.01,2013-01-25 00:52:00,
2013-01-24 19:57:00,29.5,0.0,30.41,NW,321,0.0,3.0,0,0.00,,,0.00,VWS V13.01,2013-01-25 00:57:00,
2013-01-24 20:02:00,29.7,0.0,30.41,NW,321,0.0,1.0,0,0.00,,,0.00,VWS V13.01,2013-01-25 01:02:00,
2013-01-24 20:07:00,29.5,0.0,30.41,NW,321,0.0,1.0,0,0.00,,,0.00,VWS V13.01,2013-01-25 01:07:00,
2013-01-24 20:12:00,29.4,0.0,30.41,NW,312,0.0,2.0,0,0.00,,,0.00,VWS V13.01,2013-01-25 01:12:00,
2013-01-24 20:17:00,29.4,0.0,30.41,NW,312,0.0,2.0,0,0.00,,,0.00,VWS V13.01,2013-01-25 01:17:00,
2013-01-24 20:22:00,29.3,0.0,30.41,NW,314,2.0,2.0,0,0.00,,,0.00,VWS V13.01,2013-01-25 01:22:00,
2013-01-24 20:27:00,29.3,0.0,30.41,NW,313,0.0,3.0,0,0.00,,,0.00,VWS V13.01,2013-01-25 01:27:00,
2013-01-24 20:32:00,29.3,0.0,30.42,NW,314,0.0,0.0,0,0.00,,,0.00,VWS V13.01,2013-01-25 01:32:00,
2013-01-24 20:37:00,29.3,0.0,30.42,NW,320,2.0,3.0,0,0.00,,,0.00,VWS V13.01,2013-01-25 01:37:00,
2013-01-24 20:42:00,29.1,0.0,30.42,NW,317,0.0,4.0,0,0.00,,,0.00,VWS V13.01,2013-01-25 01:42:00,
2013-01-24 20:47:00,29.0,0.0,30.41,NW,317,0.0,4.0,0,0.00,,,0.00,VWS V13.01,2013-01-25 01:47:00,
2013-01-24 20:52:00,29.0,0.0,30.41,NNW,328,2.0,4.0,0,0.00,,,0.00,VWS V13.01,2013-01-25 01:52:00,
2013-01-24 20:57:00,28.8,0.0,30.41,NW,324,0.0,4.0,0,0.00,,,0.00,VWS V13.01,2013-01-25 01:57:00,
2013-01-24 21:02:00,28.8,0.0,30.40,NW,324,0.0,0.0,0,0.00,,,0.00,VWS V13.01,2013-01-25 02:02:00,
2013-01-24 21:07:00,28.7,0.0,30.40,NW,323,0.0,2.0,0,0.00,,,0.00,VWS V13.01,2013-01-25 02:07:00,
2013-01-24 21:12:00,28.5,0.0,30.40,NW,323,0.0,2.0,0,0.00,,,0.00,VWS V13.01,2013-01-25 02:12:00,
2013-01-24 21:17:00,28.5,0.0,30.40,NW,323,0.0,2.0,0,0.00,,,0.00,VWS V13.01,2013-01-25 02:17:00,
2013-01-24 21:22:00,28.5,0.0,30.40,NW,323,0.0,2.0,0,0.00,,,0.00,VWS V13.01,2013-01-25 02:22:00,
2013-01-24 21:27:00,28.4,0.0,30.40,NW,323,0.0,2.0,0,0.00,,,0.00,VWS V13.01,2013-01-25 02:27:00,
2013-01-24 21:32:00,28.4,0.0,30.39,NW,323,0.0,0.0,0,0.00,,,0.00,VWS V13.01,2013-01-25 02:32:00,
2013-01-24 21:37:00,28.2,0.0,30.39,NW,323,0.0,0.0,0,0.00,,,0.00,VWS V13.01,2013-01-25 02:37:00,
2013-01-24 21:42:00,28.1,0.0,30.39,NW,324,0.0,1.0,0,0.00,,,0.00,VWS V13.01,2013-01-25 02:42:00,
2013-01-24 21:47:00,28.1,0.0,30.39,NW,313,0.0,1.0,0,0.00,,,0.00,VWS V13.01,2013-01-25 02:47:00,
2013-01-24 21:52:00,27.9,0.0,30.39,NW,319,0.0,2.0,0,0.00,,,0.00,VWS V13.01,2013-01-25 02:52:00,
2013-01-24 21:57:00,27.8,0.0,30.39,NW,321,0.0,2.0,0,0.00,,,0.00,VWS V13.01,2013-01-25 02:57:00,
2013-01-24 22:02:00,27.8,0.0,30.39,NW,321,0.0,2.0,0,0.00,,,0.00,VWS V13.01,2013-01-25 03:02:00,
2013-01-24 22:07:00,27.6,0.0,30.39,NW,321,0.0,2.0,0,0.00,,,0.00,VWS V13.01,2013-01-25 03:07:00,
2013-01-24 22:12:00,27.6,0.0,30.39,NW,321,0.0,2.0,0,0.00,,,0.00,VWS V13.01,2013-01-25 03:12:00,
2013-01-24 22:17:00,27.6,0.0,30.37,NW,321,0.0,2.0,0,0.00,,,0.00,VWS V13.01,2013-01-25 03:17:00,
2013-01-24 22:22:00,27.6,0.0,30.37,NW,321,0.0,2.0,0,0.00,,,0.00,VWS V13.01,2013-01-25 03:22:00,
2013-01-24 22:27:00,27.5,0.0,30.37,NW,321,0.0,2.0,0,0.00,,,0.00,VWS V13.01,2013-01-25 03:27:00,
2013-01-24 22:30:00,40.2,0.0,30.03,West,270,0.0,0.0,0,0.00,,,0.00,VWS V13.01,2013-01-25 03:30:00,
2013-01-24 22:32:00,27.5,0.0,30.38,NW,320,0.0,2.0,0,0.00,,,0.00,VWS V13.01,2013-01-25 03:32:00,
2013-01-24 22:37:00,27.5,0.0,30.38,NW,320,0.0,2.0,0,0.00,,,0.00,VWS V13.01,2013-01-25 03:37:00,
2013-01-24 22:42:00,27.3,0.0,30.38,NW,320,0.0,2.0,0,0.00,,,0.00,VWS V13.01,2013-01-25 03:42:00,
2013-01-24 22:47:00,27.3,0.0,30.37,NW,320,0.0,2.0,0,0.00,,,0.00,VWS V13.01,2013-01-25 03:47:00,
2013-01-24 22:52:00,27.3,0.0,30.37,NW,320,0.0,2.0,0,0.00,,,0.00,VWS V13.01,2013-01-25 03:52:00,
2013-01-24 22:57:00,27.3,0.0,30.37,NW,320,0.0,2.0,0,0.00,,,0.00,VWS V13.01,2013-01-25 03:57:00,
2013-01-24 23:03:00,27.3,0.0,30.39,NW,319,0.0,1.0,0,0.00,,,0.00,VWS V13.01,2013-01-25 04:03:00,
2013-01-24 23:08:00,27.3,0.0,30.39,NW,319,0.0,1.0,0,0.00,,,0.00,VWS V13.01,2013-01-25 04:08:00,
2013-01-24 23:13:00,27.3,0.0,30.39,NW,319,0.0,1.0,0,0.00,,,0.00,VWS V13.01,2013-01-25 04:13:00,
2013-01-24 23:18:00,27.3,0.0,30.37,NW,319,0.0,1.0,0,0.00,,,0.00,VWS V13.01,2013-01-25 04:18:00,
2013-01-24 23:23:00,27.5,0.0,30.37,NNE,13,0.0,2.0,0,0.00,,,0.00,VWS V13.01,2013-01-25 04:23:00,
2013-01-24 23:28:00,27.5,0.0,30.37,NNE,13,0.0,2.0,0,0.00,,,0.00,VWS V13.01,2013-01-25 04:28:00,
2013-01-24 23:33:00,27.6,0.0,30.38,NNE,13,0.0,0.0,0,0.00,,,0.00,VWS V13.01,2013-01-25 04:33:00,
2013-01-24 23:38:00,27.6,0.0,30.38,NW,322,0.0,2.0,0,0.00,,,0.00,VWS V13.01,2013-01-25 04:38:00,
2013-01-24 23:43:00,27.6,0.0,30.38,NNE,29,0.0,2.0,0,0.00,,,0.00,VWS V13.01,2013-01-25 04:43:00,
2013-01-24 23:48:00,27.6,0.0,30.38,NNE,17,1.0,5.0,0,0.00,,,0.00,VWS V13.01,2013-01-25 04:48:00,
2013-01-24 23:53:00,27.8,0.0,30.38,North,5,2.0,5.0,0,0.00,,,0.00,VWS V13.01,2013-01-25 04:53:00,
2013-01-24 23:58:00,27.8,0.0,30.38,NNE,14,0.0,5.0,0,0.00,,,0.00,VWS V13.01,2013-01-25 04:58:00,